Погода в Хотынце

Россия / Орловская область     53°08′26″N   35°23′40″E
темп.,
°C
ветер,
м/с
пор.,
м/с
влажн.,
%
обл.,
%
осадки,
мм/ч
давл.,
гПа
погр.,
м
15 мая, сб
сб1500:00+13ююз359428 0.4 100871
03:00+12ю229353 0.4 100822
06:00+12ю36945 0.0 1008131
09:00+17ююз58785 0.0 1009566
12:00+19ююз696515 0.2 10091553
15:00+19ююз7107455 2.4 10091347
18:00+17юз59820 1.8 1010960
21:00+13ююз3994100 1.8 1011192
16 мая, вс
вс1600:00+12ююз39940 0.0 1012164
03:00+11ю379411 0.0 1013121
06:00+11ююз38946 0.0 1014199
09:00+15юз57775 0.0 1014639
12:00+19юз46640 0.0 10141144
15:00+20ююз465918 0.0 10141680
18:00+20юз256891 0.0 1013811
21:00+15вюв1179100 0.0 101411
17 мая, пн
пн1700:00+14в338493 0.0 101331
03:00+12всв389199 0.0 1013137
06:00+13всв41193100 0.3 1011258
09:00+19в5107992 0.3 1010454
12:00+23юв7106383 0.0 1008825
15:00+25юв7136276 0.0 10071357
18:00+22юв6127097 0.1 1006959
21:00+18юв4128335 0.1 1006303
18 мая, вт
вт1800:00+15ююв3794100 0.0 1006143
03:00+14ююв3596100 0.3 1005103
06:00+15юв2695100 0.3 1005164
09:00+17ююв51092100 2.0 1005535
12:00+19ююв5986100 0.4 1005942
15:00+17ю61090100 0.6 1006674
18:00+17ююз588751 0.9 1006825
21:00+14ююз229376 0.9 100733
19 мая, ср
ср1900:00+13ю2296100 0.6 100633
03:00+12ююв3697100 1.1 1006135
06:00+13ююв3798100 0.6 1005358
09:00+13ю5993100 0.8 1005807
12:00+12зюз8149039 0.1 1007882
15:00+16з69709 0.2 1010921
18:00+16юз2269100 0.0 1011891
21:00+13вюв118498 0.0 101212